Wind_Speed
39 40 41 41 42 42 43 44 44 44 45 45 46 47 47 48 48 48 49 50 50 51 51 51 51 51 51 50 50 50 50 49 49 50 50 51 50 48 47 45 44 43 43
38 38 40 41 42 42 43 44 45 45 46 47 48 48 49 49 49 49 50 51 51 52 52 51 52 52 52 53 52 53 52 52 51 51 51 52 52 51 49 48 47 46 46
37 38 39 40 41 42 43 44 45 45 46 47 48 48 49 49 50 50 51 51 51 52 52 53 53 54 54 54 54 53 53 53 53 54 54 55 52 52 53 52 49 48 47
35 36 36 37 38 39 40 41 42 43 44 44 45 46 47 48 49 50 51 51 52 52 52 53 54 54 55 56 55 55 55 55 55 56 55 55 54 55 54 54 53 51 50
31 32 33 34 35 36 36 37 38 40 40 41 43 44 45 46 47 48 49 50 51 52 52 53 53 54 55 56 56 56 56 55 55 55 55 56 56 56 57 56 56 56 54
26 27 29 31 32 32 33 35 36 37 39 40 41 42 42 43 44 45 46 47 49 50 51 52 52 53 54 55 55 56 56 56 55 55 55 55 56 56 56 56 56 55 55
24 25 25 26 27 28 30 31 32 33 35 36 37 38 39 40 41 43 44 46 47 49 50 50 52 53 54 55 54 54 54 54 54 54 54 54 54 54 55 57 57 56 54
21 22 23 23 24 25 26 27 28 30 31 32 33 34 36 38 39 41 42 43 43 44 45 47 48 50 51 52 53 52 51 51 52 52 52 52 52 53 55 56 57 57 56
17 18 20 21 21 22 23 24 25 26 27 27 29 30 32 34 35 36 37 38 39 41 42 43 44 45 47 49 50 50 49 49 49 49 50 50 51 52 54 55 56 56 57
12 13 15 16 17 18 20 21 22 22 23 24 25 26 27 28 29 30 33 34 35 36 37 38 39 41 42 44 46 46 47 48 47 48 49 50 51 52 53 54 55 56 57
11 12 12 13 14 15 16 17 17 18 19 20 21 22 23 24 25 26 28 29 31 32 32 34 35 37 37 39 41 43 44 45 46 47 47 48 50 51 52 52 54 55 57
10 10 11 12 12 13 13 14 15 16 16 17 17 17 18 20 21 23 24 25 27 28 29 30 32 33 34 35 37 39 41 43 44 46 46 47 48 49 51 52 54 55 57
9 10 10 11 12 12 13 13 13 14 14 14 15 15 16 16 18 19 20 21 23 24 25 26 27 28 30 32 34 35 37 39 41 43 45 46 46 48 49 51 53 53 55
9 10 11 11 12 12 12 12 12 12 12 13 13 14 15 16 17 17 17 18 19 20 21 22 23 25 27 29 32 34 36 37 39 41 43 44 46 47 49 50 51 52 53
8 9 10 11 11 12 11 11 11 11 12 13 13 15 16 16 17 16 17 17 17 18 19 20 21 23 24 26 29 31 34 36 38 40 42 43 45 46 47 48 50 51 52
8 9 10 10 11 11 11 11 11 12 12 13 14 15 16 17 17 17 17 18 18 18 19 20 21 23 24 26 28 31 33 35 37 38 40 41 42 44 45 47 49 50 52
8 9 10 10 11 11 11 12 13 13 14 15 16 16 17 17 17 17 18 18 19 19 20 22 23 24 25 26 28 30 32 34 36 38 39 40 41 43 44 45 47 49 50
10 10 11 12 12 13 14 14 14 15 15 16 17 17 18 18 19 19 19 20 20 21 22 23 24 25 27 28 29 31 32 34 35 37 39 40 42 43 44 46 47 48 49
12 12 13 13 14 15 15 16 16 16 17 18 19 20 20 21 21 21 22 22 23 23 24 25 25 26 28 29 30 31 32 33 35 36 38 40 42 43 45 46 47 48 50
15 15 15 15 15 16 17 17 18 18 19 19 20 21 22 22 23 23 24 25 25 26 27 27 28 29 30 30 31 32 33 35 36 37 39 41 42 43 44 46 48 50 51
18 18 18 18 18 18 19 19 20 21 21 22 23 23 24 24 25 26 27 27 28 29 30 29 30 30 31 32 33 34 35 36 37 38 40 41 43 44 45 47 48 49 51
19 19 19 20 20 21 21 22 22 23 24 25 25 26 26 27 28 29 30 31 31 32 32 32 32 32 33 34 35 36 37 38 39 40 41 42 43 44 45 46 47 48 49
22 22 22 22 22 23 24 24 25 25 26 27 27 28 28 29 30 31 32 33 33 34 34 34 34 35 36 37 38 39 40 41 42 42 43 44 44 45 46 46 47 48 49
25 25 25 25 25 25 26 26 27 28 29 30 30 31 31 32 33 34 34 35 35 36 36 36 37 37 38 39 40 41 42 43 43 43 44 45 45 46 46 46 47 48 49
27 28 28 27 28 28 29 29 30 31 31 32 33 33 34 34 35 36 36 37 37 37 37 38 38 40 40 42 43 43 44 44 44 45 45 46 46 46 47 47 48 48 49
29 29 29 29 30 30 30 31 31 32 33 33 34 35 35 36 36 37 37 38 39 39 39 40 41 42 43 44 45 45 46 46 46 46 46 46 46 46 47 47 48 48 49
Wind_Direction
254 256 257 257 257 258 259 259 260 261 261 261 262 262 262 262 262 262 261 261 261 261 260 260 260 260 259 258 257 257 258 258 258 258 258 257 257 257 258 259 260 261 261
256 257 258 258 259 260 261 261 261 262 262 263 262 262 262 262 262 262 262 262 262 262 261 260 259 259 258 258 257 257 258 257 258 258 258 258 258 257 258 258 259 260 260
257 258 260 261 261 261 261 262 262 263 264 263 263 263 262 262 262 262 262 262 262 262 262 260 259 258 258 258 258 257 258 258 258 259 259 259 258 258 257 257 258 258 259
259 260 261 262 263 263 263 263 263 264 264 263 263 263 263 262 261 261 260 260 261 262 261 260 259 258 258 258 258 258 258 258 258 259 259 258 259 259 257 257 256 258 259
259 260 262 263 264 264 264 265 266 265 264 265 265 264 263 262 261 262 262 261 261 261 261 260 258 257 257 257 258 258 258 258 258 259 259 259 259 258 257 256 256 257 259
259 261 264 265 265 266 267 269 268 267 266 267 267 266 264 263 262 263 262 262 262 262 262 260 259 258 257 257 257 257 257 257 258 259 259 259 259 258 257 256 255 256 257
260 263 266 267 268 269 271 272 270 269 268 267 266 265 264 264 264 264 264 264 263 263 262 261 260 258 257 256 256 256 256 256 257 258 258 258 258 258 257 257 255 255 256
264 265 267 270 272 273 272 272 272 271 271 270 268 267 266 266 266 266 267 266 266 264 264 263 261 259 257 255 254 255 256 256 256 256 256 256 256 256 257 257 256 256 256
267 267 271 275 276 274 273 273 274 274 273 273 271 271 270 269 268 269 269 268 267 266 266 265 262 260 257 255 254 255 255 255 255 256 256 256 257 257 257 257 257 257 256
273 273 277 279 279 279 278 276 276 277 277 277 277 275 274 272 271 272 271 270 269 268 266 265 263 260 258 255 253 253 255 256 256 257 258 258 259 259 259 258 257 258 258
281 281 282 285 288 287 284 278 278 280 281 280 280 280 279 276 276 277 275 272 270 270 268 266 263 260 258 255 254 254 255 256 257 258 259 260 260 259 259 260 260 259 259
287 287 287 289 295 297 294 288 285 284 285 285 288 289 287 285 283 282 280 277 274 272 270 268 265 261 258 257 256 257 257 258 259 259 260 263 262 262 261 261 261 261 261
286 291 294 295 300 304 303 296 293 293 291 290 292 294 295 294 293 292 289 284 280 276 274 272 270 266 262 261 261 261 261 263 263 262 263 264 263 264 264 263 263 263 263
289 294 298 299 302 307 309 305 302 301 299 299 300 300 299 298 298 298 296 291 287 283 277 275 274 270 266 264 263 263 265 266 265 266 267 266 266 266 266 265 264 264 264
294 298 303 303 302 305 310 311 310 309 307 307 307 307 305 303 301 301 300 296 292 288 284 280 278 276 273 271 269 268 269 269 269 269 270 270 269 268 267 266 265 266 265
300 303 307 308 306 306 308 309 308 308 310 312 313 312 311 308 304 303 301 298 295 292 289 286 283 281 279 278 276 275 274 273 273 273 273 273 272 270 269 268 268 268 267
307 305 308 312 313 311 310 311 310 310 309 310 313 314 314 312 309 307 305 302 299 296 293 291 287 285 284 283 282 281 281 280 278 277 276 275 276 275 274 272 271 270 269
306 306 308 310 311 310 310 310 311 311 311 312 312 313 313 311 310 308 306 305 303 301 298 296 293 290 289 287 286 286 286 285 283 282 280 279 279 278 277 275 273 272 271
302 303 305 307 307 308 308 308 308 309 309 310 309 309 310 309 307 307 306 305 304 302 301 299 297 294 293 292 290 289 289 288 287 285 284 283 281 280 278 277 276 275 274
296 300 303 305 307 307 307 306 305 306 307 308 309 308 308 308 306 305 305 304 303 302 301 299 297 295 294 293 292 292 291 290 289 288 287 286 284 282 281 280 278 277 276
295 297 300 302 304 306 305 304 303 304 305 307 307 308 307 307 307 306 305 305 303 301 300 298 297 296 296 295 294 294 294 293 292 291 290 288 287 286 285 284 282 280 279
292 294 297 299 300 301 302 302 301 302 304 305 305 305 306 306 306 306 305 304 303 302 301 300 298 297 296 296 295 295 295 295 294 293 292 292 290 289 288 287 285 284 283
290 291 293 294 297 298 299 299 300 301 303 303 304 304 304 304 305 305 305 304 304 304 302 301 299 298 298 297 296 296 296 296 295 294 294 293 292 291 290 289 288 287 286
288 288 290 292 294 296 297 297 299 300 301 302 303 303 304 304 305 305 305 304 305 304 303 301 300 299 299 298 298 298 298 297 296 296 295 295 294 293 292 291 290 289 289
287 288 289 290 292 294 295 296 297 298 299 300 301 302 303 304 304 305 305 305 305 304 303 302 301 301 301 300 300 299 299 298 297 297 296 296 295 294 293 292 292 291 291
287 288 288 289 291 293 294 296 297 298 299 299 300 301 302 303 304 304 304 305 304 304 302 302 302 301 301 300 300 300 299 298 297 297 297 297 296 294 294 294 294 293 292
Height
5737 5738 5739 5740 5742 5743 5743 5744 5745 5745 5746 5746 5746 5747 5747 5748 5748 5749 5749 5750 5751 5752 5753 5755 5756 5758 5759 5761 5763 5764 5765 5767 5768 5769 5771 5773 5774 5776 5777 5778 5780 5781 5782
5729 5730 5730 5731 5732 5733 5733 5734 5734 5735 5735 5735 5735 5735 5736 5736 5737 5737 5738 5738 5738 5739 5740 5742 5744 5745 5747 5749 5751 5752 5753 5755 5756 5757 5758 5760 5763 5765 5766 5767 5769 5771 5771
5720 5721 5721 5722 5722 5723 5723 5723 5723 5723 5723 5723 5723 5723 5723 5724 5724 5725 5725 5725 5726 5726 5727 5729 5730 5732 5734 5736 5738 5739 5741 5743 5744 5744 5746 5748 5751 5753 5754 5755 5757 5759 5760
5712 5712 5713 5713 5712 5712 5712 5712 5712 5712 5711 5711 5711 5711 5711 5712 5712 5712 5712 5713 5713 5713 5714 5715 5717 5718 5720 5722 5724 5726 5727 5729 5731 5732 5732 5734 5737 5739 5741 5743 5745 5746 5748
5704 5704 5704 5704 5703 5703 5703 5702 5702 5701 5700 5700 5699 5699 5699 5699 5699 5699 5700 5700 5700 5700 5701 5702 5703 5704 5706 5708 5710 5712 5713 5715 5717 5718 5719 5720 5722 5724 5727 5730 5732 5733 5735
5697 5697 5696 5695 5695 5694 5693 5692 5691 5691 5690 5689 5688 5688 5688 5687 5687 5687 5688 5688 5687 5687 5687 5688 5689 5690 5692 5694 5696 5697 5699 5701 5703 5704 5705 5706 5708 5711 5712 5715 5718 5720 5722
5690 5690 5689 5688 5687 5686 5685 5684 5682 5681 5680 5679 5678 5677 5677 5677 5677 5676 5676 5676 5675 5675 5674 5674 5675 5676 5678 5680 5681 5683 5685 5687 5688 5690 5691 5692 5694 5696 5697 5699 5702 5705 5708
5685 5684 5683 5682 5680 5679 5677 5676 5675 5673 5671 5670 5669 5668 5667 5666 5666 5665 5664 5663 5663 5662 5662 5661 5662 5662 5664 5665 5668 5670 5672 5673 5675 5676 5677 5679 5680 5682 5683 5685 5687 5690 5693
5679 5679 5677 5676 5674 5672 5670 5669 5668 5666 5664 5662 5660 5659 5657 5656 5656 5654 5653 5652 5651 5650 5650 5649 5649 5650 5651 5653 5655 5657 5659 5661 5662 5664 5664 5666 5667 5668 5670 5671 5673 5675 5678
5676 5674 5672 5670 5668 5666 5664 5663 5661 5659 5657 5655 5654 5651 5649 5648 5647 5645 5643 5642 5641 5640 5639 5638 5638 5639 5640 5641 5643 5646 5647 5649 5650 5651 5652 5653 5654 5655 5656 5657 5659 5660 5662
5672 5670 5668 5666 5664 5661 5659 5657 5656 5654 5652 5650 5647 5645 5643 5641 5639 5637 5635 5633 5632 5630 5629 5628 5628 5629 5629 5631 5632 5634 5636 5637 5639 5640 5640 5641 5642 5642 5643 5645 5645 5647 5648
5668 5666 5665 5663 5660 5658 5655 5653 5651 5649 5647 5645 5642 5640 5638 5635 5633 5631 5629 5627 5625 5623 5621 5620 5620 5620 5621 5622 5623 5624 5625 5626 5628 5628 5629 5629 5630 5630 5631 5632 5632 5633 5633
5665 5663 5661 5659 5657 5655 5652 5649 5647 5645 5642 5640 5638 5636 5633 5631 5628 5626 5623 5621 5619 5617 5615 5614 5613 5613 5613 5614 5614 5615 5616 5616 5617 5617 5617 5618 5618 5618 5618 5618 5619 5619 5619
5662 5660 5658 5656 5654 5652 5649 5646 5643 5641 5639 5637 5634 5632 5629 5627 5624 5621 5619 5616 5614 5612 5610 5609 5608 5607 5607 5606 5607 5607 5607 5607 5607 5607 5606 5606 5606 5606 5605 5605 5605 5604 5605
5659 5657 5655 5653 5651 5649 5646 5643 5641 5638 5636 5633 5631 5628 5626 5623 5620 5618 5615 5612 5610 5608 5606 5605 5603 5602 5601 5600 5600 5600 5599 5598 5597 5596 5595 5594 5593 5593 5592 5591 5591 5590 5590
5656 5654 5652 5650 5648 5646 5643 5640 5638 5635 5633 5630 5628 5625 5622 5619 5617 5614 5611 5609 5606 5604 5602 5600 5598 5597 5595 5594 5593 5592 5590 5589 5587 5586 5584 5583 5581 5580 5579 5578 5577 5576 5575
5654 5652 5650 5648 5645 5643 5640 5638 5635 5633 5630 5627 5625 5622 5619 5616 5613 5610 5607 5605 5602 5599 5597 5595 5593 5592 5590 5587 5585 5583 5581 5579 5577 5575 5573 5571 5569 5568 5566 5564 5563 5561 5560
5652 5650 5647 5645 5643 5640 5638 5635 5632 5630 5627 5624 5621 5618 5615 5612 5609 5606 5603 5601 5598 5595 5592 5589 5587 5585 5582 5580 5577 5575 5572 5570 5567 5565 5562 5560 5557 5555 5553 5550 5548 5546 5544
5648 5646 5644 5642 5640 5637 5635 5632 5629 5626 5624 5621 5618 5615 5612 5608 5605 5602 5599 5596 5593 5590 5586 5583 5580 5577 5574 5571 5568 5566 5563 5560 5557 5554 5550 5547 5545 5542 5539 5536 5534 5532 5529
5645 5643 5640 5638 5636 5633 5631 5628 5625 5622 5619 5616 5613 5610 5607 5604 5600 5597 5594 5590 5587 5583 5580 5576 5573 5569 5566 5563 5559 5556 5553 5550 5546 5543 5539 5535 5531 5528 5524 5521 5519 5516 5513
5640 5638 5636 5633 5631 5629 5626 5623 5620 5618 5615 5612 5608 5605 5601 5598 5595 5591 5588 5584 5580 5576 5572 5568 5565 5561 5557 5554 5550 5546 5542 5539 5535 5531 5527 5522 5518 5514 5510 5506 5503 5499 5496
5635 5633 5631 5628 5626 5623 5621 5618 5615 5612 5609 5606 5602 5599 5595 5592 5588 5584 5580 5576 5572 5568 5563 5559 5556 5552 5548 5544 5540 5536 5532 5527 5523 5519 5514 5509 5505 5500 5496 5491 5487 5483 5479
5629 5627 5625 5623 5620 5617 5615 5612 5609 5605 5602 5599 5595 5592 5588 5584 5580 5576 5572 5568 5564 5559 5555 5551 5547 5542 5538 5534 5529 5525 5520 5515 5511 5506 5501 5496 5491 5486 5481 5477 5472 5468 5464
5623 5621 5618 5616 5613 5611 5608 5605 5602 5598 5595 5591 5588 5584 5580 5576 5572 5568 5563 5559 5555 5550 5545 5541 5537 5532 5528 5523 5518 5513 5508 5503 5498 5493 5488 5483 5477 5472 5467 5462 5458 5453 5449
5615 5613 5610 5608 5606 5603 5600 5597 5594 5590 5587 5583 5580 5576 5571 5567 5563 5558 5554 5549 5545 5540 5535 5531 5526 5521 5516 5511 5506 5501 5496 5490 5485 5480 5475 5469 5464 5458 5453 5448 5443 5438 5433
5606 5604 5602 5599 5597 5594 5591 5588 5585 5582 5578 5574 5570 5566 5562 5558 5553 5549 5544 5539 5534 5529 5524 5519 5514 5509 5504 5499 5494 5488 5482 5477 5471 5466 5460 5455 5449 5444 5439 5434 5428 5423 5418